Weather History for Ozona, TX

Change the Weather History Date:

Wednesday, March 14, 2012

  Actual Average Record
Temperature  
Mean Temperature 66 °F -  
Max Temperature 73 °F 73 °F 77 °F (2013)
Min Temperature 59 °F 42 °F 42 °F (2013)
Cooling Degree Days 1    
Growing Degree Days 16 (Base 50)    
Moisture  
Dew Point 61 °F    
Average Humidity 88    
Maximum Humidity 97    
Minimum Humidity 65    
Precipitation  
Precipitation 0.00 in - - ()
Sea Level Pressure  
Sea Level Pressure 30.07 in    
Wind  
Wind Speed 9 mph (South)    
Max Wind Speed 17 mph    
Max Gust Speed 24 mph    
Visibility 8 miles    
Events      
Averages and records for this station are not official NWS values.
T = Trace of Precipitation, MM = Missing Value Source: NWS Daily Summary

Daily Weather History Graph

Daily Weather History Graph

Search for Another Location

Airport:

Trip Planner

Search our weather history database for the weather conditions in past years. The results will help you decide how hot, cold, wet, or windy it might be!

Date:

Astronomy

Mar. 14, 2012 Rise Set
Actual Time 7:55 AM CDT 7:52 PM CDT
Civil Twilight 7:31 AM CDT 8:16 PM CDT
Nautical Twilight 7:03 AM CDT 8:44 PM CDT
Astronomical Twilight 6:35 AM CDT 9:12 PM CDT
Moon 2:03 AM CDT (3/14) 12:35 PM CDT (3/14)
Length of Visible Light 12h 45m
Length of Day
11h 57m
Waning Gibbous, 54% of the Moon is Illuminated
Mar 14
Waning Gibbous
Mar 14
Last Quarter
Mar 22
New
Mar 30
First Quarter
Apr 6
Full

Hourly Weather History & Observations

Time (CDT) Temp. Dew Point Humidity Pressure Visibility Wind Dir Wind Speed Gust Speed Precip Events Conditions
12:15 AM 63.0 °F 60.4 °F 91% 30.07 in 10.0 mi SSE 5.8 mph - N/A   Clear
12:35 AM 62.6 °F 60.3 °F 92% 30.07 in 10.0 mi SSE 4.6 mph - N/A   Clear
12:55 AM 61.9 °F 59.9 °F 93% 30.07 in 7.0 mi SSE 4.6 mph - N/A   Clear
1:15 AM 61.7 °F 59.9 °F 94% 30.06 in 7.0 mi SSE 3.5 mph - N/A   Clear
1:35 AM 61.0 °F 59.5 °F 95% 30.05 in 7.0 mi Calm Calm - N/A   Clear
1:55 AM 60.1 °F 59.0 °F 96% 30.05 in 5.0 mi Calm Calm - N/A   Clear
2:15 AM 60.1 °F 59.0 °F 96% 30.05 in 5.0 mi Calm Calm - N/A   Clear
2:35 AM 59.2 °F 58.1 °F 96% 30.05 in 5.0 mi Calm Calm - N/A   Scattered Clouds
2:55 AM 59.4 °F 58.6 °F 97% 30.04 in 5.0 mi South 5.8 mph - N/A   Overcast
3:15 AM 61.2 °F 60.4 °F 97% 30.04 in 7.0 mi South 6.9 mph - N/A   Overcast
3:35 AM 62.1 °F 61.3 °F 97% 30.04 in 7.0 mi South 8.1 mph - N/A   Overcast
3:55 AM 62.6 °F 61.7 °F 97% 30.03 in 7.0 mi South 5.8 mph - N/A   Overcast
4:15 AM 62.4 °F 61.5 °F 97% 30.03 in 7.0 mi South 8.1 mph - N/A   Overcast
4:35 AM 62.2 °F 61.2 °F 96% 30.03 in 7.0 mi South 9.2 mph - N/A   Mostly Cloudy
4:55 AM 62.1 °F 61.0 °F 96% 30.02 in 7.0 mi South 9.2 mph - N/A   Overcast
5:15 AM 62.1 °F 61.0 °F 96% 30.02 in 7.0 mi South 9.2 mph - N/A   Overcast
5:35 AM 62.1 °F 61.2 °F 97% 30.03 in 7.0 mi South 11.5 mph - N/A   Overcast
5:55 AM 63.0 °F 61.9 °F 96% 30.03 in 10.0 mi South 12.7 mph - N/A   Overcast
6:15 AM 63.5 °F 61.7 °F 94% 30.04 in 10.0 mi South 12.7 mph 18.4 mph N/A   Overcast
6:35 AM 63.5 °F 61.7 °F 94% 30.05 in 10.0 mi South 11.5 mph 17.3 mph N/A   Overcast
6:55 AM 63.5 °F 61.7 °F 94% 30.05 in 10.0 mi South 11.5 mph 23.0 mph N/A   Overcast
7:15 AM 63.5 °F 61.7 °F 94% 30.06 in 7.0 mi South 13.8 mph 18.4 mph N/A   Overcast
7:35 AM 63.5 °F 61.7 °F 94% 30.07 in 7.0 mi South 12.7 mph 20.7 mph N/A   Overcast
7:55 AM 63.1 °F 61.7 °F 95% 30.07 in 7.0 mi South 17.3 mph - N/A   Overcast
8:15 AM 63.1 °F 61.7 °F 95% 30.07 in 5.0 mi South 13.8 mph 19.6 mph N/A   Overcast
8:35 AM 63.1 °F 61.9 °F 96% 30.08 in 3.0 mi South 12.7 mph - N/A   Overcast
8:55 AM 63.3 °F 62.1 °F 96% 30.08 in 2.0 mi South 12.7 mph 16.1 mph N/A   Overcast
9:15 AM 63.5 °F 62.2 °F 96% 30.09 in 2.5 mi South 11.5 mph - N/A   Overcast
9:35 AM 63.5 °F 62.4 °F 96% 30.10 in 2.5 mi South 12.7 mph - N/A   Overcast
9:55 AM 63.5 °F 62.6 °F 97% 30.10 in 2.5 mi South 13.8 mph 17.3 mph N/A   Overcast
10:15 AM 63.7 °F 62.6 °F 96% 30.11 in 3.0 mi South 11.5 mph - N/A   Overcast
10:35 AM 63.9 °F 62.6 °F 96% 30.12 in 4.0 mi South 15.0 mph 20.7 mph N/A   Overcast
10:55 AM 64.0 °F 62.8 °F 96% 30.12 in 3.0 mi South 11.5 mph 18.4 mph N/A   Overcast
11:15 AM 64.2 °F 62.8 °F 95% 30.12 in 5.0 mi South 13.8 mph 19.6 mph N/A   Overcast
11:35 AM 64.4 °F 62.4 °F 93% 30.12 in 7.0 mi South 17.3 mph 24.2 mph N/A   Overcast
11:55 AM 64.6 °F 62.4 °F 93% 30.12 in 7.0 mi South 13.8 mph 23.0 mph N/A   Overcast
12:15 PM 65.1 °F 62.4 °F 91% 30.12 in 7.0 mi South 12.7 mph 21.9 mph N/A   Overcast
12:35 PM 65.3 °F 62.2 °F 90% 30.12 in 10.0 mi South 11.5 mph 16.1 mph N/A   Overcast
12:55 PM 65.7 °F 62.6 °F 90% 30.12 in 10.0 mi South 16.1 mph - N/A   Overcast
1:15 PM 66.4 °F 62.6 °F 88% 30.11 in 10.0 mi South 13.8 mph 23.0 mph N/A   Overcast
1:35 PM 66.9 °F 62.6 °F 86% 30.11 in 10.0 mi South 13.8 mph 19.6 mph N/A   Overcast
1:55 PM 67.1 °F 62.4 °F 85% 30.11 in 10.0 mi South 13.8 mph - N/A   Overcast
2:15 PM 67.1 °F 62.1 °F 84% 30.11 in 10.0 mi South 16.1 mph 21.9 mph N/A   Overcast
2:35 PM 67.3 °F 61.9 °F 83% 30.09 in 10.0 mi SSW 11.5 mph - N/A   Overcast
2:55 PM 67.6 °F 62.1 °F 82% 30.08 in 10.0 mi South 10.4 mph - N/A   Overcast
3:15 PM 67.8 °F 62.2 °F 82% 30.08 in 10.0 mi South 11.5 mph - N/A   Overcast
3:35 PM 69.3 °F 62.2 °F 78% 30.06 in 10.0 mi South 12.7 mph - N/A   Overcast
3:55 PM 70.7 °F 62.1 °F 74% 30.07 in 10.0 mi SSW 9.2 mph - N/A   Mostly Cloudy
4:15 PM 71.4 °F 61.9 °F 72% 30.06 in 10.0 mi South 13.8 mph - N/A   Overcast
4:35 PM 71.8 °F 61.7 °F 70% 30.05 in 10.0 mi South 12.7 mph 16.1 mph N/A   Mostly Cloudy
4:55 PM 72.5 °F 61.7 °F 69% 30.05 in 10.0 mi South 11.5 mph - N/A   Scattered Clouds
5:15 PM 72.9 °F 61.3 °F 67% 30.05 in 10.0 mi South 10.4 mph 18.4 mph N/A   Mostly Cloudy
5:35 PM 72.9 °F 61.2 °F 67% 30.04 in 10.0 mi SSE 13.8 mph 17.3 mph N/A   Mostly Cloudy
5:55 PM 72.9 °F 60.8 °F 66% 30.05 in 10.0 mi SSE 12.7 mph - N/A   Mostly Cloudy
6:15 PM 73.2 °F 60.6 °F 65% 30.05 in 10.0 mi South 11.5 mph - N/A   Mostly Cloudy
6:35 PM 72.7 °F 60.4 °F 65% 30.05 in 10.0 mi SSE 15.0 mph - N/A   Mostly Cloudy
6:55 PM 72.5 °F 60.3 °F 65% 30.05 in 10.0 mi South 13.8 mph - N/A   Scattered Clouds
7:15 PM 72.0 °F 60.1 °F 66% 30.04 in 10.0 mi SSE 15.0 mph 20.7 mph N/A   Clear
7:55 PM 70.7 °F 60.1 °F 69% 30.07 in 10.0 mi South 3.5 mph - N/A   Mostly Cloudy
8:15 PM 68.9 °F 59.9 °F 73% 30.07 in 10.0 mi South 4.6 mph - N/A   Mostly Cloudy
8:35 PM 67.8 °F 60.1 °F 76% 30.07 in 10.0 mi Calm Calm - N/A   Overcast
8:55 PM 67.5 °F 59.9 °F 77% 30.07 in 10.0 mi SSE 9.2 mph - N/A   Scattered Clouds
9:15 PM 66.6 °F 59.7 °F 79% 30.08 in 10.0 mi Calm Calm - N/A   Scattered Clouds
9:35 PM 65.3 °F 59.4 °F 81% 30.08 in 10.0 mi Calm Calm - N/A   Mostly Cloudy
9:55 PM 63.5 °F 58.8 °F 85% 30.09 in 10.0 mi Calm Calm - N/A   Scattered Clouds
10:15 PM 63.3 °F 59.2 °F 86% 30.09 in 10.0 mi Calm Calm - N/A   Mostly Cloudy
10:35 PM 63.3 °F 59.2 °F 86% 30.10 in 10.0 mi Calm Calm - N/A   Mostly Cloudy
10:55 PM 62.2 °F 58.8 °F 89% 30.10 in 10.0 mi Calm Calm - N/A   Scattered Clouds
11:15 PM 61.2 °F 58.1 °F 90% 30.10 in 10.0 mi NNE 3.5 mph - N/A   Scattered Clouds
11:35 PM 59.9 °F 57.6 °F 92% 30.10 in 7.0 mi Calm Calm - N/A   Clear
11:55 PM 59.9 °F 57.7 °F 93% 30.10 in 7.0 mi Calm Calm - N/A   Clear